Content
SEND FEEDBACK

Daily
Averages
Monthly
Summary
United States of America

LOWER ECHO LAKE, CALIFORNIA


Home > North America > United States > California
Elevation: 6350 feet     Latitude: 38 51N     Longitude: 120 01W

WEATHER
 
SELECT A DAY
Number of Records: 174,537;   Date Range: 1/1/95 - 8/30/14
 
SHARE

PRINT THIS DATA

[ ← Previous Day ]
WEATHER ALMANAC - FEBRUARY 4, 2013
[ Next Day → ]
[ °C ]   °F
Weather ElementAverageHighLow
Temperature34.3 °F50 °F (2:53 pm)19.9 °F (5:53 am)
Dewpoint22.5 °F28 °F (4:53 pm)15.1 °F (4:53 am)
Humidity64.5 %81 % (5:53 am)37 % (10:53 am)
Barometer30.18 in30.28 in (6:53 am)30.09 in (2:53 pm)
Wind Speed2 mph9.2 mph (11:53 am)
Weather ElementAverage
Visibility10 mi
Wind DirectionNNE (23.8 °)

Weather ElementTotal
Precipitation---
Heating Degree Days30.1 (Base 65)
Averaged from 21 records on February 4, 2013
WEATHER CONDITIONS BREAKOUT
WIND DIRECTION BREAKOUT
WEATHER BY HOUR - FEBRUARY 4, 2013
[ °C ]   °F
Local TimeTemperatureDewpointHumidityBarometerVisibilityWind DirectionWind SpeedGust SpeedPrecipitationEventsConditions
3:53 AM23.0 °F17.1 °F78 %30.22 in10.0 miCalmClear
4:53 AM21.0 °F15.1 °F78 %30.22 in10.0 miCalmClear
5:53 AM19.9 °F15.1 °F81 %30.24 in10.0 miCalmClear
6:53 AM19.9 °F15.1 °F81 %30.28 in10.0 miSouth (180°)3.5 mphClear
7:53 AM21.0 °F15.1 °F78 %30.28 in10.0 miCalmClear
8:53 AM27.0 °F17.1 °F66 %30.28 in10.0 miSouth (190°)3.5 mphClear
9:53 AM34.0 °F19.0 °F54 %30.26 in10.0 miCalmClear
10:53 AM45.0 °F19.9 °F37 %30.22 in10.0 miCalmClear
11:53 AM45.0 °F24.1 °F44 %30.19 in10.0 miNNE (30°)9.2 mphClear
12:53 PM46.9 °F25.0 °F42 %30.14 in10.0 miNNE (30°)5.8 mphClear
1:53 PM46.0 °F26.1 °F46 %30.13 in10.0 miNNE (30°)9.2 mphClear
2:53 PM50.0 °F26.1 °F39 %30.09 in10.0 miNNE (20°)5.8 mphClear
3:53 PM48.0 °F27.0 °F44 %30.11 in10.0 miNNE (20°)4.6 mphClear
4:53 PM41.0 °F28.0 °F60 %30.15 in10.0 miCalmClear
5:53 PM37.0 °F27.0 °F67 %30.17 in10.0 miCalmClear
6:53 PM37.0 °F28.0 °F70 %30.17 in10.0 miCalmClear
7:53 PM33.1 °F27.0 °F78 %30.19 in10.0 miCalmClear
8:53 PM33.1 °F26.1 °F75 %30.16 in10.0 miCalmClear
9:53 PM30.9 °F25.0 °F79 %30.13 in10.0 miCalmClear
10:53 PM30.9 °F25.0 °F79 %30.11 in10.0 miCalmClear
11:53 PM30.0 °F24.1 °F79 %30.09 in10.0 miCalmClear
Hourly data recorded from KTVL, located miles away from Lower Echo Lake, California







STORIES FROM OUR PARTNERS